Location: Fort Wayne
(41.1310°N, 85.1290°W)
Time: 22:30:12
(UTC-04:00)

Vanguard 3 - Visible Passes

Search period start: 02 September 2015 00:00
Search period end: 12 September 2015 00:00
Orbit: 508 x 3269 km, 33.3° (Epoch: 02 September)

Date Brightness Start Highest point End Pass type
(mag) Time Alt. Az. Time Alt. Az. Time Alt. Az.
02 Sep 10.2 01:59:42 18° E 01:59:42 18° E 02:03:05 10° E visible
02 Sep 8.7 04:04:21 55° SSW 04:05:43 58° S 04:20:36 10° E visible
02 Sep 9.7 06:08:59 12° W 06:19:50 56° SSW 06:37:37 10° ESE visible
03 Sep 9.4 02:55:24 37° ESE 02:55:24 37° ESE 03:04:03 10° E visible
03 Sep 9.1 05:00:02 34° WSW 05:05:09 59° S 05:21:21 10° ESE visible
04 Sep 10.4 01:46:30 13° E 01:46:30 13° E 01:47:47 10° E visible
04 Sep 8.7 03:51:09 57° S 03:51:09 57° S 04:04:51 10° ESE visible
04 Sep 9.6 05:55:48 16° W 06:04:48 51° SSW 06:21:32 10° SE visible
05 Sep 9.7 02:42:18 29° ESE 02:42:18 29° ESE 02:48:31 10° E visible
05 Sep 8.8 04:46:57 42° SW 04:50:20 55° S 05:05:25 10° ESE visible
06 Sep 8.9 03:38:09 50° SE 03:38:09 50° SE 03:49:07 10° ESE visible
06 Sep 9.5 05:42:49 21° WSW 05:49:52 46° SSW 06:05:21 10° SE visible
07 Sep 10.1 02:29:25 21° ESE 02:29:25 21° ESE 02:33:03 10° E visible
07 Sep 8.7 04:34:05 48° SSW 04:35:36 51° S 04:49:28 10° ESE visible
07 Sep 10.0 06:39:33 10° W 06:49:33 34° SSW 07:04:04 10° SSE visible
08 Sep 9.3 03:25:25 37° SE 03:25:25 37° SE 03:33:26 10° ESE visible
08 Sep 9.2 05:30:05 27° WSW 05:35:02 40° SSW 05:49:04 10° SE visible
09 Sep 10.5 02:16:48 12° ESE 02:16:48 12° ESE 02:17:41 10° ESE visible
09 Sep 8.9 04:21:29 45° S 04:21:29 45° S 04:33:29 10° SE visible
09 Sep 9.9 06:26:10 11° WSW 06:34:39 28° SSW 06:47:17 10° SSE visible
10 Sep 9.8 03:12:56 25° SE 03:12:56 25° SE 03:17:49 10° ESE visible
10 Sep 9.2 05:17:37 31° SW 05:20:19 34° SSW 05:32:41 10° SE visible
11 Sep 9.3 04:09:07 34° SSE 04:09:07 34° SSE 04:17:31 10° SE visible
11 Sep 9.8 06:13:48 14° WSW 06:19:53 23° SSW 06:30:14 10° SSE visible
